New Delhi, India

11:39 PM IST on June 28, 2017 (GMT +0530)
Indira Gandhi International

Weather History for VIDP - April, 2013

Change the Weather History Date:

Tuesday, April 23, 2013

  Actual Average Record
Temperature  
Mean Temperature 83 °F -  
Max Temperature 93 °F 101 °F 109 °F (2007)
Min Temperature 73 °F 77 °F 68 °F (2012)
Cooling Degree Days 18    
Growing Degree Days 33 (Base 50)    
Moisture  
Dew Point 57 °F    
Average Humidity 41    
Maximum Humidity 65    
Minimum Humidity 23    
Precipitation  
Precipitation 0.00 in - - ()
Sea Level Pressure  
Sea Level Pressure 29.85 in    
Wind  
Wind Speed 4 mph ()    
Max Wind Speed 9 mph    
Max Gust Speed -    
Visibility 2.1 miles    
Events      
Averages and records for this station are not official NWS values.
T = Trace of Precipitation, MM = Missing Value Source: Averaged Metar Reports

Daily Weather History Graph

Daily Weather History Graph

Search for Another Location

Airport or City:

Trip Planner

Search our weather history database for the weather conditions in past years. The results will help you decide how hot, cold, wet, or windy it might be!

Date:

Astronomy

Apr. 23, 2013 Rise Set
Actual Time 5:48 AM IST 6:51 PM IST
Civil Twilight 5:23 AM IST 7:16 PM IST
Nautical Twilight 4:54 AM IST 7:45 PM IST
Astronomical Twilight 4:24 AM IST 8:15 PM IST
Moon 4:26 PM IST (4/23) 3:46 AM IST (4/23)
Length of Visible Light 13h 52m
Length of Day
13h 03m
Waxing Gibbous, 91% of the Moon is Illuminated
Apr 23
Waxing Gibbous
Apr 26
Full
May 2
Last Quarter
May 10
New
May 18
First Quarter

Hourly Weather History & Observations

Time (IST) Temp. Heat Index Dew Point Humidity Pressure Visibility Wind Dir Wind Speed Gust Speed Precip Events Conditions
12:00 AM 77.0 °F - 59.0 °F 54% 29.86 in 1.9 mi East 4.6 mph - N/A   Haze
12:30 AM 77.0 °F - 59.0 °F 54% 29.86 in 1.9 mi ENE 4.6 mph - N/A   Haze
1:00 AM 77.0 °F - 59.0 °F 54% 29.83 in 1.9 mi ENE 5.8 mph - N/A   Haze
1:30 AM 75.2 °F - 59.0 °F 57% 29.83 in 1.9 mi East 4.6 mph - N/A   Haze
2:00 AM 75.2 °F - 59.0 °F 57% 29.83 in 1.9 mi ENE 3.5 mph - N/A   Haze
2:30 AM 75.2 °F - 59.0 °F 57% 29.83 in 1.9 mi East 3.5 mph - N/A   Haze
3:00 AM 75.2 °F - 59.0 °F 57% 29.83 in 1.9 mi East 3.5 mph - N/A   Haze
3:30 AM 75.2 °F - 60.8 °F 61% 29.83 in 1.9 mi East 3.5 mph - N/A   Haze
4:00 AM 75.2 °F - 60.8 °F 61% 29.83 in 1.9 mi East 4.6 mph - N/A   Haze
4:30 AM 75.2 °F - 60.8 °F 61% 29.83 in 1.9 mi East 4.6 mph - N/A   Haze
5:00 AM 75.2 °F - 60.8 °F 61% 29.83 in 1.9 mi ESE 4.6 mph - N/A   Haze
5:30 AM 75.2 °F - 60.8 °F 61% 29.83 in 1.9 mi ESE 5.8 mph - N/A   Haze
6:00 AM 75.2 °F - 60.8 °F 61% 29.86 in 1.9 mi East 6.9 mph - N/A   Haze
6:30 AM 73.4 °F - 60.8 °F 65% 29.86 in 1.9 mi ESE 4.6 mph - N/A   Haze
7:00 AM 75.2 °F - 60.8 °F 61% 29.89 in 1.9 mi ESE 8.1 mph - N/A   Haze
7:30 AM 77.0 °F - 60.8 °F 57% 29.89 in 1.9 mi SE 9.2 mph - N/A   Haze
8:00 AM 78.8 °F - 60.8 °F 54% 29.89 in 1.6 mi SE 6.9 mph - N/A   Haze
8:30 AM 80.6 °F 81.5 °F 60.8 °F 51% 29.92 in 1.7 mi SSE 6.9 mph - N/A   Haze
9:30 AM 86.0 °F 85.4 °F 59.0 °F 40% 29.92 in 2.2 mi South 6.9 mph - N/A   Haze
10:00 AM 86.0 °F 85.4 °F 59.0 °F 40% 29.92 in 2.2 mi South 6.9 mph - N/A   Haze
10:30 AM 86.0 °F 85.4 °F 59.0 °F 40% 29.92 in 2.2 mi SSW 6.9 mph - N/A   Haze
11:00 AM 87.8 °F 86.1 °F 55.4 °F 33% 29.92 in 2.5 mi SW 4.6 mph - N/A   Haze
11:30 AM 89.6 °F 87.7 °F 55.4 °F 31% 29.92 in 2.5 mi WSW 4.6 mph - N/A   Haze
12:00 PM 91.4 °F 89.4 °F 55.4 °F 29% 29.89 in 2.5 mi SSE 5.8 mph - N/A   Haze
12:30 PM 91.4 °F 89.4 °F 55.4 °F 29% 29.89 in 2.5 mi Variable 2.3 mph - N/A   Haze
1:00 PM 91.4 °F 89.4 °F 55.4 °F 29% 29.89 in 2.5 mi Variable 2.3 mph - N/A   Haze
1:30 PM 93.2 °F 90.8 °F 53.6 °F 26% 29.86 in 2.5 mi NW 4.6 mph - N/A   Haze
2:00 PM 93.2 °F 90.8 °F 53.6 °F 26% 29.86 in 2.5 mi WNW 4.6 mph - N/A   Haze
2:30 PM 93.2 °F - 51.8 °F 24% 29.83 in 2.5 mi NW 5.8 mph - N/A   Haze
3:00 PM 93.2 °F - 51.8 °F 24% 29.83 in 2.5 mi WNW 5.8 mph - N/A   Haze
3:30 PM 93.2 °F - 51.8 °F 24% 29.83 in 2.5 mi West 5.8 mph - N/A   Haze
4:00 PM 93.2 °F - 50.0 °F 23% 29.80 in 2.5 mi NNE 6.9 mph - N/A   Haze
4:30 PM 93.2 °F - 51.8 °F 24% 29.80 in 2.5 mi NNW 4.6 mph - N/A   Haze
5:00 PM 93.2 °F - 51.8 °F 24% 29.80 in 2.5 mi NW 4.6 mph - N/A   Haze
5:30 PM 93.2 °F - 51.8 °F 24% 29.80 in 2.5 mi North 5.8 mph - N/A   Haze
6:00 PM 91.4 °F - 51.8 °F 26% 29.80 in 2.5 mi North 3.5 mph - N/A   Haze
6:30 PM 91.4 °F - 51.8 °F 26% 29.80 in 2.5 mi East 3.5 mph - N/A   Haze
7:00 PM 89.6 °F 87.3 °F 53.6 °F 29% 29.83 in 2.5 mi ENE 3.5 mph - N/A   Haze
7:30 PM 89.6 °F 87.3 °F 53.6 °F 29% 29.83 in 2.5 mi ENE 3.5 mph - N/A   Haze
8:00 PM 87.8 °F 85.7 °F 53.6 °F 31% 29.83 in 2.2 mi ENE 3.5 mph - N/A   Haze
8:30 PM 87.8 °F 86.1 °F 55.4 °F 33% 29.83 in - ENE 4.6 mph - N/A   Haze
9:30 PM 86.0 °F 84.5 °F 55.4 °F 35% 29.86 in 1.9 mi East 5.8 mph - N/A   Haze
10:00 PM 86.0 °F 84.5 °F 55.4 °F 35% 29.86 in 1.9 mi ENE 5.8 mph - N/A   Haze
10:30 PM 84.2 °F 83.0 °F 55.4 °F 37% 29.86 in 1.6 mi Calm Calm - N/A   Haze
11:00 PM 82.4 °F 81.7 °F 55.4 °F 39% 29.86 in 1.4 mi Calm Calm - N/A   Haze
11:30 PM 82.4 °F 81.7 °F 55.4 °F 39% 29.86 in 1.4 mi ESE 4.6 mph - N/A   Haze